Wetbulb
47.51 45.21 42.87 45.54 47.34 46.43 44.86 43.35 43.35 45.07 45.17 41.66 41.12 41.96 45.23 47.26 44.76 44.89 46.64 46.99 46.78 47.23 54.48 58.49 60.84 61.32 60.95 59.80 59.50 60.46 59.92 61.07 62.22 61.47 60.69 60.43 60.06 60.63 60.66 60.88 59.54 59.35 58.97 58.78
43.72 41.88 46.56 48.43 47.61 47.45 44.85 43.25 42.22 42.33 44.52 42.43 40.69 41.01 43.52 44.89 45.38 45.90 46.19 46.11 46.14 46.94 48.16 51.62 56.28 59.32 59.24 59.12 59.20 59.87 60.20 60.29 61.63 62.14 61.99 61.78 61.37 60.99 61.37 61.29 60.66 59.57 59.23 59.10
41.95 44.13 47.81 46.75 46.33 44.92 43.80 43.31 43.68 41.92 40.73 40.55 39.23 38.58 40.87 44.58 45.09 46.84 48.01 48.41 47.93 47.95 47.87 47.56 52.12 56.67 58.44 58.34 58.66 59.14 59.79 60.33 60.88 61.70 61.59 58.84 58.85 57.86 58.34 59.51 60.26 60.43 59.57 59.53
43.45 46.74 45.66 45.09 44.09 46.13 42.56 46.72 46.70 41.95 41.09 34.99 39.67 31.75 35.20 40.53 43.14 44.35 47.92 45.17 46.66 46.71 47.89 48.80 48.83 53.01 56.99 58.49 59.17 59.62 59.79 60.08 60.42 61.09 60.67 60.01 59.59 58.46 59.31 59.69 60.54 60.30 60.29 59.75
41.59 43.32 43.31 42.78 44.18 47.21 43.44 44.33 43.54 42.90 39.72 37.03 33.60 31.88 34.89 37.51 38.36 40.87 43.53 46.39 48.05 48.01 48.09 48.11 48.04 51.81 55.52 57.81 58.47 59.29 59.36 59.42 60.05 60.13 60.81 60.19 59.51 59.94 59.69 59.54 58.78 59.49 59.70 60.38
42.75 47.20 45.85 45.61 47.19 47.35 45.83 41.53 41.76 40.11 37.36 33.60 35.07 34.12 32.63 35.68 39.38 40.89 42.34 43.55 45.61 46.05 47.45 48.93 49.43 48.64 50.71 54.11 55.79 57.53 58.61 58.97 59.39 59.68 59.89 59.72 59.38 59.25 58.55 57.96 58.49 58.96 59.44 59.84
41.48 42.33 45.01 46.90 43.92 46.08 44.08 41.91 31.40 30.38 30.51 30.20 33.06 32.40 37.89 39.46 40.93 41.44 42.45 43.31 44.21 44.67 44.27 45.28 45.79 45.90 47.39 50.34 53.92 56.19 57.95 58.87 59.43 59.10 59.28 59.62 59.40 59.32 58.79 58.33 58.32 58.57 58.94 59.42
35.66 34.06 42.43 46.60 45.02 42.83 42.33 42.14 32.68 27.79 27.12 28.16 31.83 30.33 36.34 41.82 44.09 42.85 42.97 42.41 41.50 42.05 42.78 43.51 44.22 44.22 44.57 46.49 51.38 55.10 56.73 58.74 59.22 59.68 59.43 59.64 59.81 59.74 59.44 59.28 59.29 59.10 59.48 59.98
35.79 36.05 44.43 45.83 46.04 45.07 41.43 38.46 40.34 28.73 21.91 24.49 28.19 31.91 37.70 39.00 40.48 41.22 41.92 39.55 40.08 40.12 40.46 41.64 41.71 41.81 41.70 43.06 45.42 52.16 54.04 55.75 56.90 58.11 60.06 60.15 60.10 59.71 59.64 59.57 59.71 60.00 60.20 60.57
39.43 34.03 42.38 44.40 44.55 45.09 42.51 42.70 33.18 31.21 21.45 20.12 25.99 26.80 31.42 35.98 38.76 40.34 38.72 39.82 40.40 40.53 40.63 40.96 41.53 41.58 41.38 40.93 42.73 45.65 51.58 53.54 54.22 54.87 56.41 58.94 60.12 60.61 60.59 60.64 59.83 60.09 60.69 60.83
40.14 39.28 36.89 41.10 40.17 39.53 38.00 38.15 36.67 34.48 30.00 26.38 21.97 26.93 35.43 39.32 41.78 40.41 39.43 39.94 40.63 40.67 39.68 40.64 41.01 41.14 41.60 41.58 41.80 41.80 42.07 43.46 44.95 47.84 51.22 53.59 55.62 56.83 58.63 60.54 61.05 60.66 60.83 60.94
42.10 40.07 33.41 37.41 36.50 41.98 41.75 39.90 35.82 34.29 28.47 28.46 28.38 28.85 38.33 40.95 42.46 40.83 39.88 40.86 40.14 39.86 39.77 39.88 40.55 40.83 41.18 41.46 41.16 41.67 41.92 42.27 42.76 42.79 42.84 43.60 45.01 47.95 51.72 55.54 57.33 58.60 60.24 61.40
39.89 36.56 31.90 31.69 34.27 38.05 38.79 38.37 40.67 35.66 32.46 28.13 26.78 29.49 37.53 37.23 38.52 39.00 39.32 37.49 38.46 39.31 39.36 39.30 39.26 39.88 40.42 40.72 40.86 41.41 41.87 42.36 42.61 42.85 43.02 43.15 43.27 43.66 44.63 46.77 50.11 53.24 54.98 56.76
41.85 36.42 35.38 31.10 33.55 38.01 36.23 36.64 39.85 37.33 29.74 31.27 33.73 31.93 33.75 34.45 36.53 36.89 37.26 37.89 38.56 38.95 39.29 39.07 38.74 39.81 40.18 40.15 40.33 40.72 41.56 42.06 42.51 43.03 43.06 43.08 42.85 43.42 43.89 44.39 45.71 47.44 48.95 49.74
40.31 33.89 33.35 34.18 36.94 37.00 37.87 37.60 37.37 36.40 37.48 33.09 35.77 33.63 35.48 36.25 36.47 38.01 39.71 37.84 37.59 38.65 38.71 38.51 38.74 39.31 39.12 39.51 39.99 40.74 41.28 41.38 41.89 42.71 42.87 42.73 42.19 42.26 42.14 42.20 43.38 46.00 46.39 46.19
38.34 30.98 33.25 27.22 36.33 36.60 33.65 38.23 37.32 38.79 38.66 36.50 35.42 35.25 41.14 38.54 36.57 35.84 38.02 38.53 38.72 39.82 39.65 39.50 39.15 38.94 39.25 40.08 40.11 40.14 40.94 41.17 41.25 41.53 41.61 40.94 40.27 39.58 39.47 39.56 40.46 41.48 40.96 41.65
37.21 30.51 31.32 24.93 32.81 32.64 29.91 35.16 37.08 37.75 39.98 39.44 35.41 39.48 39.54 38.53 37.76 38.50 39.33 38.98 40.36 39.88 39.65 39.77 40.17 39.93 39.06 38.60 39.19 39.23 39.52 39.69 40.10 39.57 39.00 37.99 36.99 36.77 36.59 36.48 36.49 36.72 38.39 38.70
36.20 33.78 28.17 25.75 32.37 25.61 33.47 40.47 40.31 38.51 40.11 41.88 41.30 41.51 41.16 42.17 43.72 41.57 41.58 40.80 38.50 38.84 39.39 39.49 38.82 38.57 39.02 38.56 38.55 39.09 39.33 38.99 37.60 35.97 36.02 35.76 35.35 34.68 35.04 35.16 36.02 36.74 37.61 36.78
40.39 33.27 27.35 27.23 28.70 26.63 29.41 33.80 37.17 36.48 36.93 42.38 41.79 43.25 40.18 38.61 37.82 39.47 38.98 39.22 40.45 39.56 39.49 38.96 38.69 38.61 38.04 37.36 36.87 36.76 35.55 35.29 35.48 35.60 35.45 34.87 34.29 30.56 35.26 34.92 36.76 36.64 35.54 35.27
36.84 37.07 31.85 23.25 26.99 23.62 33.31 34.48 42.21 40.20 32.84 42.77 43.54 43.19 37.55 37.71 35.25 40.70 39.37 39.45 38.81 38.88 38.19 37.62 37.60 37.02 36.29 33.91 33.43 34.77 33.99 34.09 33.73 33.71 34.00 33.87 32.96 31.01 33.07 35.30 34.46 32.70 32.43 32.36
32.38 32.24 30.62 30.30 26.41 27.82 31.84 35.74 42.75 31.44 34.04 42.49 43.73 44.15 41.63 39.12 43.84 41.99 38.77 36.89 37.24 36.54 35.93 35.87 35.68 34.21 32.81 32.11 33.31 33.18 32.71 32.33 32.04 32.08 32.41 30.39 28.57 28.53 32.98 33.15 31.62 32.03 32.12 31.55
31.26 30.60 28.09 24.59 24.07 26.91 32.30 38.96 35.71 39.85 37.77 33.44 40.45 43.60 43.57 43.92 39.88 36.95 36.78 35.23 35.36 34.85 33.94 33.31 31.70 30.98 30.37 31.25 32.79 32.05 31.64 30.81 28.29 27.10 27.20 25.43 26.78 31.36 32.20 32.87 31.94 31.82 32.08 31.98
29.97 35.34 31.64 32.18 32.14 32.67 37.33 39.26 40.27 37.71 34.97 33.77 34.06 35.29 42.78 41.72 35.83 36.01 34.93 34.42 33.91 32.64 31.24 30.94 30.51 29.03 28.35 28.82 31.42 29.98 28.53 27.33 24.24 23.34 28.72 29.51 30.27 32.17 32.09 32.46 31.83 31.22 31.77 31.34
30.09 32.14 32.39 31.38 31.27 31.28 34.35 34.47 36.25 34.42 35.65 33.79 33.90 33.31 35.77 36.60 34.70 32.62 33.50 32.05 31.64 30.53 30.35 27.25 28.10 27.01 26.09 23.70 27.86 28.92 25.65 25.16 21.32 28.16 28.60 29.08 30.68 31.34 31.47 31.26 31.26 32.09 31.33 30.52
31.69 33.08 28.19 28.09 29.81 30.77 32.01 34.98 37.47 34.87 33.40 33.10 33.25 32.71 35.19 34.27 32.30 33.15 31.39 30.75 30.68 29.78 27.03 26.67 27.07 26.14 25.61 25.46 26.05 26.08 26.83 29.88 27.58 28.01 27.00 29.21 29.58 30.78 29.90 29.58 30.65 30.13 30.61 32.22
28.61 32.15 34.45 32.02 32.78 33.68 35.01 36.52 35.56 34.89 33.55 33.30 33.28 31.83 32.07 32.67 32.21 30.68 30.82 29.15 28.68 27.04 24.93 24.84 23.17 25.02 23.76 24.83 23.90 24.01 21.85 18.84 22.26 25.82 25.13 23.12 27.03 27.64 27.77 28.22 28.21 33.30 33.94 34.58
MSLP
1016.65 1016.45 1014.98 1014.00 1015.29 1016.17 1017.28 1017.51 1017.78 1017.46 1017.34 1017.99 1018.19 1018.08 1017.48 1017.17 1017.80 1018.02 1017.81 1017.77 1017.86 1017.79 1017.12 1017.44 1017.61 1017.88 1018.27 1018.78 1019.32 1019.55 1020.33 1020.78 1021.33 1021.76 1022.36 1022.73 1022.90 1023.25 1023.29 1023.32 1023.38 1023.58 1023.77 1024.03
1016.25 1014.92 1014.44 1015.36 1015.98 1016.27 1016.60 1017.51 1017.53 1017.59 1017.43 1018.11 1018.36 1018.09 1017.59 1017.51 1017.16 1017.28 1017.19 1016.88 1016.81 1016.86 1016.88 1016.81 1017.16 1017.30 1017.60 1017.81 1018.26 1018.99 1019.28 1019.76 1020.31 1021.00 1021.32 1021.84 1022.18 1022.32 1022.41 1022.74 1022.95 1022.96 1023.13 1023.37
1014.25 1012.89 1014.81 1015.35 1015.73 1016.09 1016.15 1016.49 1017.28 1017.50 1017.92 1018.35 1018.59 1018.49 1018.03 1017.27 1017.01 1016.59 1016.04 1016.13 1016.06 1016.08 1016.14 1016.12 1016.39 1016.63 1016.93 1017.18 1017.42 1017.74 1018.28 1018.77 1019.28 1019.91 1020.76 1021.61 1021.82 1022.15 1022.26 1022.25 1022.22 1022.21 1022.58 1022.78
1013.94 1013.83 1014.30 1014.95 1015.07 1015.33 1015.80 1016.25 1017.08 1017.79 1018.14 1018.72 1018.88 1018.39 1017.46 1016.77 1016.47 1016.21 1015.40 1015.54 1015.45 1015.43 1015.33 1015.31 1015.53 1015.84 1016.08 1016.12 1016.48 1016.91 1017.48 1018.08 1018.66 1019.30 1019.84 1020.18 1020.61 1020.87 1020.76 1021.05 1021.32 1021.43 1021.86 1022.14
1012.54 1012.45 1013.00 1013.65 1012.87 1014.64 1015.56 1016.16 1017.16 1018.22 1018.59 1019.02 1019.37 1019.56 1016.72 1016.62 1016.21 1015.18 1014.64 1014.43 1014.47 1014.56 1014.75 1014.80 1014.88 1014.86 1015.02 1015.58 1015.89 1016.17 1016.84 1017.49 1017.97 1018.44 1018.88 1019.45 1019.83 1019.77 1020.16 1020.49 1020.67 1020.94 1021.21 1021.49
1012.34 1012.29 1013.26 1012.92 1014.62 1015.14 1015.76 1016.73 1017.75 1019.09 1019.51 1019.59 1018.73 1019.08 1016.96 1016.06 1014.88 1014.23 1013.72 1013.71 1013.62 1013.77 1014.06 1014.25 1014.30 1014.62 1014.80 1014.92 1015.40 1016.16 1016.52 1016.72 1017.22 1017.65 1018.03 1018.49 1018.91 1019.43 1019.84 1020.05 1020.10 1020.27 1020.52 1020.61
1012.30 1012.24 1012.26 1012.84 1014.44 1015.59 1015.55 1016.32 1018.85 1020.34 1020.34 1019.00 1018.40 1019.09 1015.40 1014.77 1013.97 1013.53 1013.01 1012.76 1012.71 1013.02 1013.62 1014.05 1014.34 1014.45 1014.81 1015.09 1015.22 1015.53 1015.94 1016.20 1016.46 1016.92 1017.30 1017.51 1017.81 1018.39 1018.82 1019.11 1019.33 1019.59 1019.62 1019.55
1010.17 1011.24 1010.38 1011.18 1011.73 1012.36 1013.36 1014.08 1015.50 1017.34 1019.40 1019.33 1019.06 1017.36 1014.46 1013.34 1012.65 1012.65 1012.37 1012.16 1012.24 1012.59 1012.87 1013.33 1013.63 1013.87 1014.30 1014.68 1014.84 1015.07 1015.37 1015.55 1015.83 1016.12 1016.51 1016.86 1017.25 1017.63 1017.75 1017.99 1018.17 1018.54 1018.58 1018.52
1008.94 1009.99 1010.61 1010.49 1011.26 1011.94 1013.56 1013.76 1014.46 1017.44 1019.70 1019.36 1018.00 1016.05 1014.15 1013.03 1012.80 1012.64 1012.50 1012.77 1012.67 1012.61 1012.90 1013.09 1013.32 1013.61 1014.01 1014.40 1014.53 1014.78 1015.10 1015.29 1015.60 1015.76 1015.95 1016.24 1016.61 1016.83 1016.89 1017.04 1017.34 1017.48 1017.51 1017.41
1007.71 1009.53 1009.99 1010.22 1011.11 1012.07 1011.82 1013.27 1014.66 1015.26 1017.63 1018.30 1016.96 1015.76 1013.29 1012.34 1012.56 1012.18 1012.39 1012.65 1012.92 1013.02 1013.13 1013.29 1013.45 1013.61 1013.84 1013.87 1014.12 1014.45 1014.84 1015.02 1015.24 1015.63 1015.87 1015.96 1016.05 1016.14 1016.24 1016.40 1016.40 1016.24 1016.32 1016.78
1007.90 1007.27 1010.03 1010.29 1009.36 1009.61 1011.46 1012.14 1013.14 1014.28 1014.95 1015.32 1015.63 1013.45 1011.49 1011.20 1010.70 1011.20 1011.58 1012.04 1012.43 1012.81 1013.02 1013.16 1013.28 1013.49 1013.87 1013.91 1014.10 1014.41 1014.83 1015.02 1015.31 1015.53 1015.66 1015.67 1015.61 1015.66 1015.78 1015.74 1015.69 1015.78 1015.88 1015.93
1007.47 1006.58 1008.49 1008.46 1010.19 1009.09 1009.47 1010.01 1010.79 1011.75 1013.52 1013.75 1013.23 1011.27 1009.38 1009.60 1009.46 1010.26 1011.07 1011.58 1011.83 1012.25 1012.45 1012.77 1012.94 1013.28 1013.64 1013.92 1014.12 1014.44 1014.73 1014.96 1015.04 1015.20 1015.45 1015.51 1015.47 1015.62 1015.68 1015.56 1015.41 1015.44 1015.34 1015.35
1006.71 1005.10 1007.85 1009.53 1010.43 1009.85 1009.22 1009.50 1009.78 1010.17 1011.37 1012.17 1012.36 1010.11 1009.22 1008.94 1009.53 1009.93 1010.70 1011.32 1011.62 1012.14 1012.52 1012.84 1013.29 1013.53 1013.75 1013.69 1013.93 1014.28 1014.48 1014.72 1015.06 1015.17 1015.42 1015.47 1015.54 1015.59 1015.65 1015.59 1015.49 1015.30 1015.14 1014.99
1005.15 1005.15 1004.14 1004.47 1005.43 1006.31 1008.01 1007.93 1008.14 1008.84 1010.07 1009.68 1009.71 1009.18 1008.98 1009.03 1009.10 1009.69 1010.13 1010.54 1011.30 1011.88 1012.16 1012.54 1013.02 1013.35 1013.51 1013.67 1013.87 1013.94 1014.10 1014.41 1014.70 1014.90 1015.21 1015.25 1015.31 1015.38 1015.40 1015.38 1015.41 1015.31 1015.22 1015.11
1003.58 1004.47 1004.98 1005.24 1006.46 1007.45 1007.32 1007.22 1007.77 1008.17 1007.49 1008.66 1007.84 1008.90 1008.64 1008.50 1008.72 1009.02 1009.61 1010.63 1011.24 1011.69 1012.01 1012.12 1012.41 1013.01 1013.12 1013.25 1013.37 1013.52 1013.73 1014.11 1014.46 1014.80 1014.96 1014.83 1015.06 1015.19 1015.24 1015.25 1015.26 1015.36 1015.33 1015.20
1003.51 1004.62 1005.63 1006.60 1006.22 1006.67 1007.25 1007.46 1007.73 1007.34 1007.97 1007.79 1007.72 1007.90 1007.85 1007.84 1008.41 1008.95 1009.46 1010.29 1010.69 1010.92 1011.31 1011.64 1012.11 1012.66 1012.84 1012.88 1012.97 1013.28 1013.52 1013.88 1014.22 1014.44 1014.63 1014.99 1015.15 1015.20 1015.30 1015.35 1015.55 1015.61 1015.55 1015.49
1002.23 1002.96 1004.75 1006.59 1006.39 1007.08 1007.36 1006.46 1006.75 1006.37 1006.00 1005.48 1005.96 1005.29 1007.00 1007.40 1007.91 1008.21 1008.96 1009.36 1009.58 1010.12 1010.79 1011.23 1011.51 1011.95 1012.35 1012.57 1012.82 1013.15 1013.34 1013.68 1013.99 1014.32 1014.59 1014.92 1015.20 1015.46 1015.64 1015.74 1015.76 1015.79 1015.74 1015.65
1000.69 1001.90 1004.29 1006.58 1006.44 1006.74 1004.05 1003.95 1004.05 1004.16 1004.06 1004.32 1004.74 1004.98 1005.75 1006.03 1006.35 1007.23 1007.60 1008.06 1008.96 1009.84 1010.32 1010.57 1011.08 1011.81 1012.27 1012.62 1012.92 1013.15 1013.41 1013.67 1013.88 1014.15 1014.41 1014.66 1015.15 1015.57 1015.82 1015.96 1016.02 1015.90 1015.64 1015.67
999.81 1001.81 1004.54 1005.95 1005.72 1005.46 1004.29 1002.98 1002.65 1002.92 1001.57 1002.00 1003.46 1003.94 1005.05 1005.91 1006.90 1006.90 1007.06 1007.59 1008.29 1009.07 1009.84 1010.61 1011.25 1011.85 1012.51 1012.95 1013.13 1013.32 1013.62 1013.91 1014.24 1014.59 1014.70 1014.81 1015.06 1015.45 1015.95 1016.13 1016.21 1016.05 1015.94 1015.98
1000.01 1000.97 1002.86 1005.52 1005.54 1004.08 999.75 1001.54 1002.27 1004.50 1003.06 1001.88 1001.27 1001.92 1004.65 1005.75 1006.64 1004.46 1006.50 1007.25 1008.39 1009.26 1010.04 1010.96 1011.58 1012.18 1012.67 1013.29 1013.32 1013.41 1013.98 1014.15 1014.51 1014.67 1014.81 1014.97 1014.93 1015.05 1015.54 1015.97 1015.97 1015.92 1015.98 1015.95
1001.01 1002.52 1003.34 1004.30 1004.21 1002.12 1000.82 1000.44 1002.11 1004.41 999.83 999.49 1000.03 1001.59 1003.71 1003.95 1002.07 1004.65 1005.74 1007.18 1008.07 1009.19 1010.16 1011.10 1011.86 1012.70 1013.13 1013.18 1013.24 1013.81 1014.05 1014.52 1014.88 1014.76 1014.62 1014.84 1015.36 1015.36 1015.27 1015.66 1015.88 1016.00 1015.93 1015.98
999.65 1001.31 1003.32 1004.45 1003.92 1001.58 999.52 1000.70 998.89 996.63 997.97 998.75 999.61 1000.48 1001.65 1001.47 1003.92 1005.17 1006.14 1007.50 1008.81 1009.88 1010.87 1011.53 1012.34 1013.15 1013.41 1013.46 1013.15 1013.95 1014.57 1015.08 1015.21 1015.06 1015.25 1015.46 1015.48 1015.37 1015.27 1015.83 1016.07 1016.08 1015.95 1015.71
999.39 997.78 999.33 1000.25 998.32 998.59 998.18 997.59 997.52 997.84 998.60 999.67 1000.28 1000.55 1001.02 1002.46 1003.92 1005.12 1006.63 1008.01 1009.10 1010.30 1011.20 1011.58 1011.81 1013.06 1013.72 1013.62 1013.88 1014.46 1014.57 1014.59 1015.02 1014.97 1015.07 1015.04 1015.32 1015.35 1015.86 1016.21 1016.14 1016.15 1016.16 1016.06
998.31 998.26 999.14 999.81 999.28 998.84 998.67 998.52 998.25 998.72 998.99 999.75 1000.17 1000.90 1001.52 1002.60 1004.05 1005.75 1006.87 1008.23 1009.37 1010.48 1011.42 1011.48 1012.40 1013.54 1013.99 1014.46 1014.72 1014.96 1015.26 1014.93 1015.01 1015.57 1015.46 1015.45 1015.22 1015.37 1015.60 1016.02 1015.96 1016.17 1016.25 1016.32
997.93 998.53 999.09 999.39 998.99 998.93 998.91 998.63 998.74 999.64 999.82 1000.51 1000.85 1001.40 1001.78 1002.84 1004.48 1005.50 1007.10 1008.39 1009.33 1010.50 1011.58 1012.18 1012.83 1013.49 1014.19 1014.78 1015.35 1015.37 1015.30 1015.10 1015.45 1015.80 1015.93 1015.92 1016.15 1015.95 1015.78 1015.82 1015.92 1016.16 1016.37 1016.51
999.84 999.64 999.50 998.74 998.30 998.34 998.38 998.42 998.84 999.91 1000.39 1001.00 1001.76 1002.46 1002.82 1003.35 1004.70 1005.99 1007.36 1008.40 1009.56 1010.97 1011.92 1012.45 1013.09 1014.11 1014.85 1015.29 1015.82 1015.91 1016.02 1015.52 1015.49 1015.97 1016.03 1016.28 1016.59 1016.33 1016.76 1016.75 1017.03 1016.43 1016.06 1016.54
Wind_Speed
8 10 24 30 21 7 9 8 12 8 5 5 11 8 11 8 4 7 9 10 12 13 17 13 16 16 15 14 15 17 14 12 10 8 7 7 9 7 5 6 9 9 8 9
7 21 22 16 11 16 14 12 12 3 3 7 6 13 10 7 7 8 11 10 10 8 8 8 12 14 15 17 17 16 17 15 14 10 9 8 8 8 7 6 7 9 9 10
16 21 16 15 17 18 8 19 11 7 4 1 3 8 7 9 6 9 13 10 9 13 12 9 11 14 14 16 18 18 18 17 15 15 8 2 2 2 4 7 9 10 10 11
19 12 19 22 22 19 19 7 8 6 11 6 6 7 6 9 14 9 19 10 13 12 9 9 10 11 15 17 16 17 17 17 15 16 13 15 13 12 10 9 9 9 11 12
16 27 26 27 34 22 6 11 8 5 6 4 4 2 7 3 7 11 15 17 17 15 13 11 11 13 14 12 14 16 15 15 15 15 16 13 15 11 7 8 8 10 8 12
6 14 19 18 11 12 10 10 9 5 1 10 9 9 6 7 9 6 7 11 13 11 12 11 8 7 7 8 8 8 12 15 15 16 17 17 17 13 8 7 9 8 8 9
17 18 8 16 17 7 9 18 4 5 5 6 7 7 12 8 9 10 11 10 11 10 9 9 10 7 7 9 9 9 12 15 14 16 16 18 17 15 15 12 10 10 9 9
25 16 24 21 24 16 26 19 8 9 6 4 4 11 10 14 10 9 7 6 6 8 8 8 9 8 8 9 8 10 12 15 11 14 17 15 16 11 11 13 11 10 11 11
22 18 16 25 14 20 12 17 11 9 3 4 6 7 10 7 9 9 10 5 7 7 8 9 7 6 5 5 8 9 8 8 7 9 10 12 13 14 13 15 11 11 12 12
7 14 21 20 13 14 15 10 8 1 9 6 4 6 8 7 12 13 9 11 9 7 6 6 6 6 4 4 3 5 6 8 6 5 6 7 9 11 13 12 14 16 14 12
8 18 11 14 15 21 9 14 7 6 5 10 5 9 10 17 17 16 12 11 10 10 9 9 7 5 5 2 2 3 3 4 4 6 6 7 8 7 7 11 12 12 12 13
15 15 12 26 1 8 20 20 6 13 9 4 4 8 7 16 15 10 11 11 8 9 11 9 8 7 5 4 2 3 3 5 6 5 5 7 6 6 7 7 7 7 10 11
11 10 17 7 4 3 18 11 19 5 4 7 7 8 4 6 8 9 11 9 8 9 8 7 6 7 7 6 4 4 5 7 5 4 5 6 7 6 7 7 7 6 6 8
10 6 21 24 26 27 31 22 29 12 6 9 17 5 5 5 11 9 8 11 11 9 10 8 7 8 7 6 6 6 6 6 5 5 6 7 6 6 6 6 6 6 6 6
14 4 5 2 14 13 22 24 20 20 17 12 13 8 8 10 9 13 15 9 8 9 9 9 8 8 8 7 6 5 6 5 4 6 7 7 5 5 5 5 5 6 8 6
3 8 10 3 17 20 13 25 16 23 17 9 5 9 9 8 2 7 11 13 12 12 9 9 9 8 8 8 5 3 6 6 5 6 7 5 4 4 4 4 4 5 5 5
23 11 12 8 13 12 7 25 27 24 26 29 25 23 10 8 10 14 15 14 16 12 11 11 12 9 5 4 4 5 5 3 4 5 5 4 3 4 4 4 4 4 5 4
17 15 5 5 15 13 9 24 31 32 32 28 21 17 16 14 17 14 16 19 11 10 10 8 4 4 5 3 2 1 1 2 1 1 3 1 1 3 3 3 4 5 3 4
18 7 6 9 14 1 5 16 34 30 33 32 27 26 8 7 5 11 9 8 13 11 8 5 5 4 5 4 3 3 4 3 3 3 3 1 1 1 2 3 5 5 4 4
8 7 10 5 11 19 13 9 16 4 19 26 38 28 10 9 11 16 11 9 8 9 8 9 7 5 6 3 3 5 4 3 2 2 3 3 2 4 3 4 4 2 1 2
11 7 13 12 5 8 6 13 24 16 25 19 30 26 18 18 24 10 10 6 7 7 9 8 7 7 5 3 4 6 5 4 2 2 2 2 1 2 2 1 1 1 1 0
13 13 7 4 2 19 11 27 33 21 4 4 14 24 30 30 9 9 9 9 11 11 8 8 8 7 5 4 6 7 6 0 1 2 4 4 3 2 2 1 0 0 1 2
6 13 15 18 13 0 24 15 10 5 6 6 9 9 22 16 10 13 11 13 11 11 8 6 9 7 4 5 5 5 2 2 3 4 4 4 3 4 2 1 2 1 0 0
2 4 6 7 6 6 15 2 3 3 6 5 5 7 11 13 12 9 12 11 11 10 9 6 10 7 6 4 4 2 2 2 5 5 5 3 4 4 3 2 2 2 1 0
4 10 8 1 1 5 4 7 12 4 7 6 5 5 10 12 11 13 11 11 10 9 5 5 8 8 7 5 4 2 2 4 5 5 5 4 2 2 3 3 2 1 2 2
5 2 14 7 9 4 9 11 9 10 8 10 8 4 5 7 13 8 11 8 10 10 7 8 8 9 7 5 4 3 2 3 5 5 4 3 2 3 2 3 3 10 7 4
Wind_Direction
197 193 199 195 198 176 166 161 195 212 197 134 202 215 236 222 221 228 231 223 218 214 227 213 212 206 201 195 191 196 189 193 183 186 193 204 212 209 213 209 210 209 208 203
176 211 202 185 177 197 165 193 197 226 182 168 204 239 242 245 236 207 227 231 219 217 219 212 209 201 200 195 194 193 197 187 191 195 201 209 207 220 223 220 217 213 204 203
193 207 189 178 182 192 184 199 197 199 105 8 106 273 221 249 236 246 247 228 232 215 212 216 208 203 198 197 196 195 198 194 192 192 183 142 143 203 188 217 221 216 207 206
210 198 177 188 195 186 204 157 187 151 150 201 160 270 250 216 236 220 243 229 227 227 228 213 204 203 202 205 200 200 199 197 196 188 190 199 209 215 218 221 222 217 208 212
198 177 178 190 196 190 187 127 146 181 173 125 199 214 265 187 236 231 230 235 227 225 220 221 211 209 208 202 201 203 197 198 198 193 198 201 214 222 219 214 211 213 208 214
189 189 177 194 172 174 123 93 46 39 56 223 194 185 249 198 205 247 225 227 221 210 217 231 226 219 221 203 179 191 197 201 198 198 202 203 215 219 216 214 217 215 212 209
194 182 166 158 146 163 146 155 132 190 206 231 159 182 239 230 240 224 232 231 218 205 198 221 232 215 213 204 199 189 193 206 198 201 204 209 211 209 214 213 215 209 211 214
184 189 171 175 187 179 176 174 159 167 183 195 118 223 239 219 218 214 226 243 191 185 193 207 223 223 216 220 209 202 200 213 197 202 211 213 217 218 218 218 221 223 222 224
183 207 183 179 175 155 179 196 165 97 349 96 205 280 298 207 229 241 242 200 192 173 182 183 181 188 195 204 219 202 197 219 205 204 210 215 218 219 222 225 221 225 225 226
217 177 185 183 139 195 183 155 161 216 144 218 251 274 224 221 216 232 203 203 206 200 178 180 174 182 193 189 190 197 207 215 216 208 209 217 219 222 227 227 223 224 230 225
220 173 167 162 203 171 157 187 180 131 172 183 159 245 202 202 216 201 201 199 187 189 184 184 179 181 184 151 157 171 195 214 234 228 225 225 231 231 229 233 237 233 232 227
203 191 164 194 22 205 178 188 175 185 206 233 160 259 189 207 207 174 190 199 204 186 184 188 179 175 188 208 223 235 224 227 233 240 239 245 251 249 248 246 246 241 236 234
190 163 154 165 346 306 199 179 202 112 90 201 152 253 191 182 171 188 179 185 185 179 187 186 176 196 215 220 222 218 223 241 258 248 251 262 261 257 255 258 263 263 260 246
162 177 187 186 184 180 189 200 197 184 165 184 212 201 276 183 179 184 184 171 181 187 182 183 188 210 221 218 210 212 234 233 243 239 247 256 255 254 260 268 266 263 274 281
175 153 143 180 169 180 202 195 189 200 202 188 223 206 227 205 188 179 175 176 166 193 195 195 193 213 220 222 219 220 238 226 220 241 246 247 253 254 266 273 283 283 280 286
222 151 152 355 169 182 194 202 199 210 212 258 175 218 192 207 145 141 172 181 189 201 203 197 209 214 222 217 223 229 247 242 210 238 257 265 262 267 264 278 296 295 292 305
180 151 158 195 165 131 205 195 200 210 208 210 214 219 156 183 185 189 191 190 196 195 199 202 204 200 198 197 210 217 224 204 217 243 265 272 285 291 295 301 314 302 296 311
178 153 85 127 123 194 226 194 198 204 210 214 232 210 191 198 206 191 203 196 194 195 208 219 203 173 152 131 100 335 296 248 261 264 234 218 258 279 295 296 301 298 303 298
177 131 102 153 196 319 255 199 190 190 219 215 224 228 193 171 119 249 182 178 191 195 200 193 166 138 116 89 54 66 58 42 24 331 316 297 212 240 276 287 299 295 313 304
131 139 134 138 180 208 238 152 200 144 262 214 215 223 152 132 198 223 173 185 192 170 160 157 143 118 117 74 72 92 89 85 47 346 302 301 237 178 196 252 259 239 197 266
142 125 170 177 188 273 222 152 132 159 239 219 209 205 178 200 214 165 148 148 151 144 141 133 129 131 129 123 129 108 89 68 310 308 328 39 10 176 194 212 181 233 212 274
155 150 162 112 189 257 163 151 172 189 144 128 188 191 201 213 166 148 161 137 144 149 144 146 135 139 149 163 131 125 121 329 329 80 63 46 41 26 79 145 170 103 140 131
148 183 170 190 193 329 175 165 202 175 149 169 167 192 202 201 163 154 160 159 153 155 153 151 136 133 96 55 76 125 171 143 113 83 87 90 69 66 84 119 106 58 161 131
333 150 154 104 207 197 184 298 188 160 142 163 146 159 158 166 154 153 147 143 150 158 160 153 139 136 110 75 80 109 194 124 112 116 107 98 106 121 111 113 125 146 170 206
184 147 148 255 110 86 206 192 169 143 121 119 82 141 162 146 159 154 149 155 154 149 127 136 137 126 120 107 96 26 64 147 108 103 86 72 44 55 92 89 92 87 303 243
353 202 193 226 154 135 189 200 155 146 162 149 130 105 90 136 147 138 148 148 145 147 153 135 114 125 129 115 93 51 14 129 118 96 94 107 123 68 54 69 8 48 52 349